Weather History for KCKV - December, 2012

Change the Weather History Date:

Friday, December 7, 2012

  Actual Average Record
Temperature  
Mean Temperature 58 °F -  
Max Temperature 63 °F - - ()
Min Temperature 52 °F - - ()
Degree Days  
Heating Degree Days 7    
Month to date heating degree days 55  
Since 1 July heating degree days 911  
Cooling Degree Days 0    
Month to date cooling degree days 3  
Growing Degree Days 8 (Base 50)    
Moisture  
Dew Point 54 °F    
Average Humidity 89    
Maximum Humidity 100    
Minimum Humidity 78    
Precipitation  
Precipitation 0.01 in - - ()
Month to date precipitation 0.48  
Sea Level Pressure  
Sea Level Pressure 29.91 in    
Wind  
Wind Speed 8 mph (South)    
Max Wind Speed 17 mph    
Max Gust Speed 22 mph    
Visibility 9 miles    
Events Rain    
T = Trace of Precipitation, MM = Missing Value Source: NWS Daily Summary

Daily Weather History Graph

Daily Weather History Graph

Search for Another Location

Airport or City:

Trip Planner

Search our weather history database for the weather conditions in past years. The results will help you decide how hot, cold, wet, or windy it might be!

Date:

Astronomy

Dec. 07, 2012 Rise Set
Actual Time 6:49 AM CST 4:33 PM CST
Civil Twilight 6:20 AM CST 5:02 PM CST
Nautical Twilight 5:48 AM CST 5:34 PM CST
Astronomical Twilight 5:16 AM CST 6:05 PM CST
Moon 12:16 AM CST (12/7) 12:22 PM CST (12/7)
Length of Visible Light 10h 41m
Length of Day
9h 44m
Last Quarter, 38% of the Moon is Illuminated
Dec 7
Last Quarter
Dec 13
New
Dec 19
First Quarter
Dec 28
Full
Jan 4
Last Quarter

Hourly Weather History & Observations

Time (CST) Temp. Dew Point Humidity Pressure Visibility Wind Dir Wind Speed Gust Speed Precip Events Conditions
12:52 AM 52.0 °F 51.1 °F 97% 29.96 in 9.0 mi ESE 4.6 mph - N/A   Mostly Cloudy
1:52 AM 52.0 °F 51.1 °F 97% 29.96 in 6.0 mi ESE 4.6 mph - 0.00 in   Mostly Cloudy
2:52 AM 53.1 °F 52.0 °F 96% 29.95 in 9.0 mi SSE 3.5 mph - 0.00 in   Overcast
3:52 AM 55.9 °F 51.1 °F 84% 29.94 in 10.0 mi South 4.6 mph - N/A   Mostly Cloudy
4:52 AM 55.0 °F 50.0 °F 83% 29.94 in 10.0 mi SSE 4.6 mph - N/A   Scattered Clouds
5:52 AM 54.0 °F 50.0 °F 86% 29.95 in 10.0 mi SSE 4.6 mph - N/A   Mostly Cloudy
6:52 AM 54.0 °F 48.9 °F 83% 29.96 in 10.0 mi South 4.6 mph - N/A   Scattered Clouds
7:30 AM 55.4 °F 50.0 °F 82% 29.96 in 10.0 mi South 3.5 mph - N/A   Overcast
7:52 AM 55.9 °F 51.1 °F 84% 29.96 in 10.0 mi South 6.9 mph - N/A   Overcast
8:52 AM 57.0 °F 52.0 °F 83% 29.96 in 10.0 mi SSW 11.5 mph - N/A   Overcast
9:52 AM 59.0 °F 54.0 °F 83% 29.95 in 10.0 mi South 12.7 mph - N/A   Overcast
10:52 AM 60.1 °F 55.0 °F 83% 29.94 in 10.0 mi South 13.8 mph - N/A   Overcast
11:52 AM 61.0 °F 55.0 °F 81% 29.91 in 10.0 mi SSW 10.4 mph - N/A   Overcast
12:52 PM 61.0 °F 55.9 °F 83% 29.89 in 3.0 mi SSW 9.2 mph - 0.00 in Rain Light Rain
1:52 PM 61.0 °F 57.0 °F 87% 29.87 in 5.0 mi SSW 9.2 mph - 0.01 in Rain Light Rain
2:21 PM 62.6 °F 57.2 °F 82% 29.86 in 10.0 mi SSW 5.8 mph - 0.00 in   Overcast
2:44 PM 62.6 °F 55.4 °F 77% 29.87 in 10.0 mi SSW 8.1 mph - 0.00 in   Overcast
2:52 PM 63.0 °F 55.9 °F 78% 29.87 in 10.0 mi SSW 9.2 mph - 0.00 in   Overcast
3:52 PM 62.1 °F 55.9 °F 80% 29.87 in 10.0 mi South 6.9 mph - N/A   Overcast
4:42 PM 60.8 °F 55.4 °F 82% 29.88 in 10.0 mi SSW 6.9 mph - N/A   Overcast
4:52 PM 61.0 °F 55.9 °F 83% 29.88 in 10.0 mi SSW 9.2 mph - N/A   Mostly Cloudy
5:03 PM 62.6 °F 55.4 °F 77% 29.88 in 10.0 mi SSW 8.1 mph - N/A   Overcast
5:27 PM 59.0 °F 55.4 °F 88% 29.88 in 10.0 mi South 4.6 mph - N/A   Scattered Clouds
5:43 PM 60.8 °F 55.4 °F 82% 29.89 in 10.0 mi Calm Calm - N/A   Mostly Cloudy
5:52 PM 61.0 °F 55.9 °F 83% 29.89 in 10.0 mi SSW 4.6 mph - N/A   Mostly Cloudy
6:32 PM 60.8 °F 55.4 °F 82% 29.89 in 10.0 mi SSW 5.8 mph - N/A   Mostly Cloudy
6:52 PM 59.0 °F 55.9 °F 90% 29.89 in 10.0 mi SSW 5.8 mph - N/A   Mostly Cloudy
7:33 PM 60.8 °F 55.4 °F 82% 29.91 in 10.0 mi SSW 5.8 mph - N/A   Overcast
7:52 PM 60.1 °F 57.0 °F 90% 29.91 in 10.0 mi SSW 10.4 mph - N/A   Mostly Cloudy
8:07 PM 60.8 °F 57.2 °F 88% 29.91 in 10.0 mi SSW 5.8 mph - N/A   Mostly Cloudy
8:52 PM 57.9 °F 55.9 °F 93% 29.91 in 9.0 mi SSW 6.9 mph - N/A   Mostly Cloudy
9:52 PM 59.0 °F 55.9 °F 90% 29.90 in 9.0 mi SSW 5.8 mph - N/A   Mostly Cloudy
10:02 PM 59.0 °F 55.4 °F 88% 29.90 in 9.0 mi South 5.8 mph - N/A   Overcast
10:52 PM 60.1 °F 57.0 °F 90% 29.89 in 10.0 mi South 6.9 mph - N/A   Overcast
11:52 PM 60.1 °F 57.0 °F 90% 29.88 in 10.0 mi South 10.4 mph - N/A   Overcast